Regional Weather Roundup
Issued by NWS State College, PA

Home | Current Version | Previous Version | Graphics & Text | Print | Product List | Glossary Off
Versions: 1 2 3 4 5 6 7 8 9 10 11 12 13 14 15 16 17 18 19 20 21 22 23 24 25 26 27 28 29 30 31 32 33 34 35 36 37 38 39 40 41 42 43 44 45 46 47 48 49 50

000
ASUS41 KCTP 031403
RWRCTP

REGIONAL WEATHER ROUNDUP
NATIONAL WEATHER SERVICE STATE COLLEGE PA
1000 AM EDT THU SEP 03 2015

Note: "fair" indicates few or no clouds below 12,000 feet with no
significant weather and/or obstructions to visibility.

* = STATION THAT DOES NOT REPORT PRECIPITATION /E.G. RAIN...SNOW...ETC/
    THUNDER OR FOG.

PAZ002>004-007>009-013>016-020>023-029>032-031500-
WESTERN PENNSYLVANIA

CITY           SKY/WX    TMP DP  RH WIND       PRES   REMARKS
ERIE           MOSUNNY   78  70  76 SW5       29.98R
MEADVILLE      PTSUNNY   73  68  84 CALM      30.01S HAZE
FRANKLIN*      MOSUNNY   73  68  83 N3        30.03S
NEW CASTLE     FAIR      77  71  81 CALM      30.01S
BEAVER COUNTY  SUNNY     77  68  73 CALM      30.02S
BUTLER*        MOSUNNY   75  68  78 CALM      30.03S
PITTSBURGH INT CLOUDY    76  67  73 SE3       30.01F
PITTSBURGH     MOSUNNY   74  63  68 S3        30.02S
INDIANA*       CLOUDY    72  68  88 SW7       30.06S
LATROBE        CLOUDY    73  68  83 SW9       30.04S
WASHINGTON CO* MOSUNNY   75  66  73 CALM      30.03F
$$

PAZ004>006-010>012-017>019-024>028-033>037-041-042-045-046-049>053-031500-
CENTRAL PENNSYLVANIA

CITY           SKY/WX    TMP DP  RH WIND       PRES   REMARKS
BRADFORD       MOSUNNY   73  68  84 CALM      30.04S HAZE
DUBOIS         SUNNY     73  67  81 CALM      30.02F HAZE
CLEARFIELD     SUNNY     72  66  81 S6        30.03S
JOHNSTOWN      CLOUDY    70  64  81 W5        30.07R HAZE
ALTOONA        SUNNY     77  67  71 W5        30.03S HAZE
STATE COLLEGE  SUNNY     75  68  78 CALM      30.00S
WILLIAMSPORT   SUNNY     76  67  73 W10       29.95S HAZE
SELINSGROVE    SUNNY     78  69  73 CALM      29.96S
FT INDIANTOWN  SUNNY     82  68  64 N3        29.94S
CAPITAL CITY   SUNNY     82  67  60 NW7       29.94S
HARRISBURG     SUNNY     80  68  66 W7        29.93S
YORK           SUNNY     79  69  71 N5        29.95S
$$

PAZ038>040-043-044-047-048-054-055-060>062-067>071-031500-
EASTERN PENNSYLVANIA

CITY           SKY/WX    TMP DP  RH WIND       PRES   REMARKS
SCRANTON       SUNNY     76  66  71 CALM      29.96F HAZE
MOUNT POCONO   MOSUNNY   78  65  63 N14G20    30.00R
ALLENTOWN      SUNNY     80  68  66 VRB3      29.93R
QUAKERTOWN*    SUNNY     82  68  61 N3        29.94R
READING        SUNNY     80  68  66 VRB3      29.93R
LANCASTER      SUNNY     81  68  64 NW5       29.94R
COATESVILLE    SUNNY     82  70  65 N6        29.95S
POTTSTOWN      SUNNY     80  69  69 CALM      29.94S
BLUE BELL      SUNNY     82  70  65 W3        29.92S
DOYLESTOWN     SUNNY     81  68  64 VRB6      29.92R
WILLOW GROVE   NOT AVBL
NORTH PHILA    SUNNY     84  64  50 NW8       29.92S
PHILADELPHIA   PTSUNNY   85  64  49 NW9       29.91S
$$



USA.gov is the U.S. government's official web portal to all federal, state and local government web resources and services.